Regional Weather Roundup
Issued by NWS

Home | Current Version | Previous Version | Graphics & Text | Print | Product List | Glossary Off
Versions: 1 2 3 4 5 6 7 8 9 10 11 12 13 14 15 16 17 18 19 20 21 22 23 24 25 26 27 28 29 30 31 32 33 34 35 36 37 38 39 40 41 42 43 44 45 46 47 48 49 50

404
ASUS43 KTOP 080459
RWRKS

WEATHER ROUNDUP FOR KANSAS
NATIONAL WEATHER SERVICE GOODLAND KS
1100 PM CST WED DEC 07 2016

NOTE:  "FAIR" INDICATES FEW OR NO CLOUDS BELOW 12,000 FEET WITH NO
SIGNIFICANT WEATHER AND/OR OBSTRUCTIONS TO VISIBILITY.

KSZ001>006-013>018-027>032-041>047-080600-
NORTHWEST KANSAS

CITY           SKY/WX    TMP DP  RH WIND       PRES   REMARKS
GOODLAND       CLEAR      2  -3  80 NW14      30.47R WCI -16
HAYS           CLEAR     14  10  84 NW12      30.55R WCI   0
HILL CITY      CLEAR     10   5  80 NW9       30.54R
RUSSELL        CLEAR     16  10  77 NW13      30.53R WCI   2
$$

KSZ061>065-074>080-084>089-080600-
SOUTHWEST KANSAS

CITY           SKY/WX    TMP DP  RH WIND       PRES   REMARKS
DODGE CITY     PTCLDY    14  10  84 NW8       30.52R
ELKHART          N/A     16   2  54 N9          N/A
GARDEN CITY    PTCLDY    11   6  81 N12       30.51R WCI  -3
GREAT BEND     CLEAR     16  12  84 NW10      30.54R WCI   4
LIBERAL        CLOUDY    19   9  63 N14       30.52R WCI   6
$$

KSZ066>073-081>083-090>101-080600-
SOUTHEAST KANSAS

CITY           SKY/WX    TMP DP  RH WIND       PRES   REMARKS
CHANUTE        CLEAR     21  17  84 NW8       30.50R
COFFEYVILLE    CLOUDY    24  20  84 N12       30.52R WCI  13
HUTCHINSON     CLEAR     20  13  74 NW13      30.52R WCI   7
MEDICINE LODGE   N/A     21  14  74 NW8       30.55R
NEWTON         CLEAR     19  14  81 N13       30.52R WCI   6
PARSONS        CLEAR     23  19  85 N8        30.51R
WICHITA INTL   CLEAR     21  15  78 NW8       30.54R
WICHITA JABRA  CLEAR     20  15  81 NW9       30.52R
WINFIELD       PTCLDY    21  17  84 N9        30.54R
$$

KSZ007>012-019>026-033>040-048>060-102>105-080600-
NORTHEAST KANSAS

CITY           SKY/WX    TMP DP  RH WIND       PRES   REMARKS
CONCORDIA      CLEAR     15   7  70 NW9       30.53R
EMPORIA        CLEAR     18  13  80 NW6       30.50R
LAWRENCE       CLEAR     15   9  76 W7        30.50R
MANHATTAN      CLEAR     20   8  60 NW5       30.53R
OLATHE IND     CLEAR     20  11  68 NW12      30.47R WCI   8
OLATHE EXE     CLEAR     20   9  62 NW9       30.46R
SALINA         CLEAR     18  13  80 NW13      30.54R WCI   5
TOPEKA BILLARD CLEAR     20   9  62 NW9       30.51R
TOPEKA FORBES  CLEAR     22  10  60 NW16      30.49R WCI   8
$$




USA.gov is the U.S. government's official web portal to all federal, state and local government web resources and services.